| time (UTC) | temp F | wind direction | speed knots | gust knots | rain 1hr in | rain 24hr in | rain mn in | humidity % | barometer mb |
| 20260506144525 | 60 | 244 | 3.5 | 7.0 | 0.00 | 0.17 | 0.16 | 77 | 1009.9 |
| 20260506143024 | 60 | 315 | 0.0 | 6.1 | 0.00 | 0.17 | 0.16 | 79 | 1010.0 |
| 20260506141522 | 59 | 342 | 0.9 | 2.6 | 0.00 | 0.17 | 0.16 | 80 | 1010.3 |
| 20260506140028 | 59 | 282 | 0.9 | 3.5 | 0.01 | 0.17 | 0.16 | 79 | 1010.5 |
| 20260506134521 | 58 | 148 | 5.2 | 10.4 | 0.02 | 0.17 | 0.16 | 79 | 1010.9 |
| 20260506133027 | 57 | 131 | 6.1 | 13.0 | 0.05 | 0.17 | 0.16 | 80 | 1010.9 |
| 20260506131520 | 57 | 133 | 7.8 | 16.5 | 0.09 | 0.17 | 0.16 | 81 | 1010.8 |
| 20260506130019 | 57 | 139 | 7.8 | 13.0 | 0.11 | 0.16 | 0.15 | 80 | 1010.7 |
| 20260506124521 | 58 | 207 | 6.1 | 16.5 | 0.09 | 0.15 | 0.13 | 79 | 1010.9 |
| 20260506123015 | 58 | 116 | 5.2 | 7.8 | 0.07 | 0.13 | 0.11 | 82 | 1010.5 |
| 20260506121515 | 59 | 227 | 2.6 | 3.5 | 0.02 | 0.08 | 0.06 | 80 | 1010.4 |
| 20260506120012 | 59 | 317 | 1.7 | 3.5 | 0.01 | 0.06 | 0.04 | 79 | 1010.0 |
| 20260506114529 | 59 | 360 | 1.7 | 4.3 | 0.01 | 0.06 | 0.04 | 80 | 1010.0 |
| 20260506113011 | 59 | 334 | 2.6 | 4.3 | 0.01 | 0.06 | 0.04 | 81 | 1010.0 |
| 20260506111507 | 59 | 332 | 1.7 | 3.5 | 0.02 | 0.06 | 0.04 | 80 | 1010.4 |
| 20260506110004 | 59 | 283 | 1.7 | 3.5 | 0.02 | 0.05 | 0.03 | 78 | 1010.8 |
| 20260506104502 | 59 | 109 | 0.9 | 2.6 | 0.02 | 0.06 | 0.03 | 79 | 1010.9 |
| 20260506103002 | 59 | 150 | 1.7 | 2.6 | 0.02 | 0.06 | 0.03 | 78 | 1011.0 |
| 20260506101500 | 59 | 271 | 0.9 | 2.6 | 0.00 | 0.05 | 0.02 | 78 | 1011.1 |
| 20260506100114 | 59 | 271 | 0.9 | 2.6 | 0.00 | 0.05 | 0.02 | 79 | 1011.0 |
| 20260506094600 | 59 | 279 | 0.9 | 2.6 | 0.00 | 0.06 | 0.02 | 81 | 1010.8 |
| 20260506093059 | 58 | 286 | 1.7 | 3.5 | 0.00 | 0.06 | 0.02 | 80 | 1011.0 |
| 20260506091557 | 58 | 294 | 0.0 | 2.6 | 0.00 | 0.06 | 0.02 | 80 | 1011.1 |
| 20260506090055 | 58 | 290 | 0.0 | 2.6 | 0.00 | 0.06 | 0.02 | 81 | 1011.2 |
| 20260506084558 | 59 | 210 | 0.9 | 2.6 | 0.00 | 0.06 | 0.02 | 81 | 1011.2 |
| 20260506083052 | 58 | 246 | 0.0 | 1.7 | 0.00 | 0.06 | 0.02 | 81 | 1011.3 |
| 20260506081551 | 58 | 214 | 0.0 | 2.6 | 0.00 | 0.06 | 0.02 | 81 | 1011.3 |
| 20260506073046 | 57 | 175 | 0.9 | 2.6 | 0.01 | 0.06 | 0.02 | 82 | 1011.6 |
| 20260506071554 | 57 | 186 | 1.7 | 4.3 | 0.01 | 0.06 | 0.02 | 82 | 1011.6 |
| 20260506061543 | 57 | 163 | 1.7 | 3.5 | 0.00 | 0.05 | 0.01 | 81 | 1011.9 |
| 20260506044545 | 56 | 173 | 0.0 | 1.7 | 0.00 | 0.05 | 0.01 | 82 | 1011.6 |
| 20260506043038 | 55 | 173 | 0.9 | 2.6 | 0.00 | 0.05 | 0.01 | 82 | 1011.5 |
| 20260506041537 | 55 | 173 | 0.0 | 1.7 | 0.00 | 0.05 | 0.01 | 82 | 1011.7 |
| 20260506040036 | 55 | 165 | 0.0 | 1.7 | 0.00 | 0.05 | 0.01 | 82 | 1011.8 |
| 20260506034538 | 56 | 182 | 0.0 | 0.0 | 0.00 | 0.05 | 0.01 | 82 | 1011.8 |
| 20260506033036 | 56 | 182 | 0.0 | 0.0 | 0.00 | 0.05 | 0.01 | 82 | 1012.1 |
| 20260506031536 | 56 | 181 | 0.9 | 2.6 | 0.00 | 0.05 | 0.01 | 82 | 1012.2 |
| 20260506030054 | 56 | 146 | 0.9 | 2.6 | 0.00 | 0.05 | 0.01 | 82 | 1012.3 |
| 20260506024534 | 56 | 136 | 0.9 | 2.6 | 0.00 | 0.05 | 0.01 | 82 | 1012.3 |
| 20260506023032 | 56 | 147 | 1.7 | 2.6 | 0.00 | 0.05 | 0.01 | 82 | 1012.3 |
| 20260506021531 | 56 | 148 | 0.0 | 0.0 | 0.00 | 0.05 | 0.01 | 82 | 1012.2 |
| 20260506020028 | 56 | 148 | 0.0 | 0.0 | 0.01 | 0.05 | 0.01 | 82 | 1012.1 |
| 20260506014525 | 56 | 148 | 0.0 | 0.0 | 0.01 | 0.05 | 0.01 | 82 | 1012.4 |
| 20260506013024 | 56 | 148 | 0.0 | 1.7 | 0.01 | 0.05 | 0.01 | 82 | 1012.7 |
| 20260506011531 | 56 | 148 | 0.9 | 2.6 | 0.01 | 0.05 | 0.01 | 82 | 1012.7 |
| 20260506010022 | 56 | 147 | 0.0 | 0.0 | 0.00 | 0.04 | 0.00 | 82 | 1012.8 |
| 20260506004540 | 56 | 147 | 0.9 | 3.5 | 0.00 | 0.04 | 0.00 | 82 | 1012.8 |
| 20260506003026 | 57 | 165 | 0.0 | 0.0 | 0.00 | 0.04 | 0.00 | 82 | 1012.7 |
| 20260506001522 | 56 | 165 | 0.0 | 2.6 | 0.00 | 0.04 | 0.00 | 82 | 1012.8 |
| 20260506000022 | 56 | 207 | 0.0 | 1.7 | 0.00 | 0.04 | 0.00 | 82 | 1012.8 |
| 20260505234516 | 57 | 207 | 0.9 | 2.6 | 0.00 | 0.04 | 0.00 | 82 | 1013.1 |
| 20260505233015 | 57 | 207 | 1.7 | 3.5 | 0.00 | 0.04 | 0.00 | 81 | 1013.0 |
| 20260505231521 | 57 | 171 | 2.6 | 4.3 | 0.00 | 0.04 | 0.00 | 81 | 1013.1 |
| 20260505230014 | 57 | 142 | 1.7 | 5.2 | 0.00 | 0.04 | 0.00 | 81 | 1013.1 |
| 20260505224511 | 57 | 160 | 1.7 | 4.3 | 0.00 | 0.04 | 0.00 | 81 | 1013.3 |
| 20260505223010 | 57 | 166 | 2.6 | 6.1 | 0.00 | 0.04 | 0.00 | 81 | 1013.3 |
| 20260505221509 | 57 | 148 | 3.5 | 6.1 | 0.00 | 0.04 | 0.00 | 82 | 1013.4 |
| 20260505220008 | 57 | 134 | 1.7 | 4.3 | 0.00 | 0.04 | 0.00 | 81 | 1013.3 |
| 20260505214505 | 57 | 186 | 0.0 | 4.3 | 0.00 | 0.04 | 0.04 | 81 | 1013.4 |
| 20260505213007 | 57 | 155 | 0.0 | 0.0 | 0.00 | 0.04 | 0.04 | 81 | 1013.5 |
| 20260505211505 | 57 | 158 | 0.9 | 4.3 | 0.00 | 0.04 | 0.04 | 81 | 1013.6 |
| 20260505210004 | 57 | 165 | 2.6 | 5.2 | 0.00 | 0.04 | 0.04 | 81 | 1013.7 |
| 20260505204504 | 57 | 204 | 0.0 | 0.0 | 0.00 | 0.04 | 0.04 | 82 | 1013.5 |
| 20260505203016 | 57 | 204 | 0.0 | 0.9 | 0.00 | 0.04 | 0.04 | 82 | 1013.5 |
| 20260505201503 | 57 | 200 | 0.0 | 0.9 | 0.00 | 0.04 | 0.04 | 82 | 1013.6 |
| 20260505200003 | 57 | 203 | 0.0 | 2.6 | 0.01 | 0.04 | 0.04 | 82 | 1013.6 |
| 20260505194502 | 57 | 182 | 1.7 | 4.3 | 0.01 | 0.04 | 0.04 | 82 | 1013.4 |
| 20260505193130 | 58 | 195 | 1.7 | 7.8 | 0.01 | 0.04 | 0.04 | 81 | 1013.4 |
| 20260505191607 | 58 | 138 | 1.7 | 7.8 | 0.01 | 0.04 | 0.04 | 81 | 1013.3 |
| 20260505190100 | 58 | 150 | 2.6 | 8.7 | 0.00 | 0.03 | 0.03 | 81 | 1013.2 |
| 20260505184603 | 58 | 144 | 3.5 | 6.1 | 0.00 | 0.03 | 0.03 | 81 | 1013.1 |
| 20260505183059 | 58 | 150 | 3.5 | 6.1 | 0.00 | 0.03 | 0.03 | 81 | 1012.9 |
| 20260505181558 | 58 | 167 | 3.5 | 6.1 | 0.00 | 0.03 | 0.03 | 81 | 1012.8 |
| 20260505180058 | 58 | 159 | 1.7 | 6.1 | 0.00 | 0.03 | 0.03 | 80 | 1012.9 |
| 20260505174558 | 59 | 134 | 6.1 | 9.6 | 0.00 | 0.03 | 0.03 | 79 | 1012.8 |
| 20260505173059 | 59 | 135 | 4.3 | 11.3 | 0.00 | 0.03 | 0.03 | 78 | 1012.8 |
| 20260505171555 | 60 | 162 | 3.5 | 6.1 | 0.00 | 0.03 | 0.03 | 76 | 1012.8 |
| 20260505170054 | 60 | 188 | 0.0 | 4.3 | 0.00 | 0.03 | 0.03 | 76 | 1012.7 |
| 20260505164553 | 60 | 118 | 3.5 | 6.1 | 0.00 | 0.03 | 0.03 | 75 | 1012.7 |
| 20260505163054 | 60 | 200 | 0.9 | 3.5 | 0.00 | 0.03 | 0.03 | 77 | 1012.8 |
| 20260505161654 | 60 | 198 | 1.7 | 4.3 | 0.00 | 0.03 | 0.03 | 76 | 1012.8 |
| 20260505153101 | 60 | 157 | 2.6 | 7.0 | 0.00 | 0.03 | 0.03 | 76 | 1012.9 |
| 20260505151548 | 60 | 119 | 3.5 | 7.8 | 0.00 | 0.03 | 0.03 | 76 | 1013.0 |